PEGASUS DEB

Satellite information

Favourite Embed

Satellite Type and Status

DEBRISIN ORBIT

Key statistics

Satellite PEGASUS DEB at a glance.

Uptime

11487

Days in orbit

Revolutions

≈ 14.1

Per day

Orbit

LEO

Low Earth Orbit

Inclination

81.5

Latest

Satellite identification and parameters

Extended collection of information and parameters for PEGASUS DEB.

Object identification

Identified? True

Debris? True

Object name: PEGASUS DEB

International designator: 1994-029AFA

Object number (NORAD): 39315

Object ID (CCSDS): 39315

Country: UNITED STATES OF AMERICA (US)

Current information (Y/N): Y

RCS size: SMALL

Orbital parameters

Period: 102.448 minutes

Inclination: 81.4911 deg

SMA: 7252.629 km

Apoapsis: 1159.728 km

Periapsis: 589.26 km

RAAN: 142.7947 deg

Eccentricy: 0.03932842

Argument of periapsis: 318.3194 deg

Mean anomaly: 38.8606 deg

Mean motion: 14.05592945 rev/day

Mean motion (dot): 0.00002775 rev/day2

B* drag term: 0.00084185355 1/REarth

Two-line elements (TLE)

Creation date: Oct. 30, 2025, 3:32 a.m.

Reference frame: TEME

Reference center: EARTH

Epoch: Oct. 29, 2025, 8 p.m. UTC

TLE line 0: 0 PEGASUS DEB

TLE line 1: 1 39315U 94029AFA 25302.83398282 .00002775 00000-0 84185-3 0 9990

TLE line 2: 2 39315 81.4911 142.7947 0393284 318.3194 38.8606 14.05592945630047

Live tracking on map

Real-time ground track for satellite PEGASUS DEB.

In-orbit conjunctions

A list of the most updated potential collisions computed for object PEGASUS DEB.

Target Orbit TCA Probability of collision Miss distance Type
THORAD AGENA D DEB SSO 2025-06-20 20:02:29 0.0003017943 32.0 (m) DEBRIS
SL-16 DEB SSO 2025-03-30 05:20:24 0.000102662 118.0 (m) DEBRIS
FENGYUN 1C DEB SSO 2024-11-13 15:01:01 0.0008823215 236.0 (m) DEBRIS

Associated space launch

PEGASUS DEB was lifted into orbit during the mission ‘Pegasus HAPS | Space Test Experiments Platform 2 (STEP-2)’, on board a Pegasus HAPS space rocket.

The launch took place on May 19, 1994, 5:03 p.m. from Edwards Air Force Base.

For more information about the launch, click the button.

Launch to space Pegasus HAPS | Space Test Experiments Platform 2 (STEP-2)
Pegasus HAPS | Space Test Experiments Platform 2 (STEP-2)

Agency: N/A

Status: Launch Successful

Launch date: May 19, 1994, 5:03 p.m. UTC

Rocket: Pegasus HAPS

Launch pad: Edwards Air Force Base

Location: Air launch to orbit

...

Latest news about this satellite

There are no fresh news available about this satellite. Check back as we update our databases every day.


Newsletter sign-up

Weekly statistics, charts and insights to help you stay on top of the space industry.